Location: Mountain View
(37.3861°N, 122.0839°W)
Time: 03:55:11
(UTC-07:00)

N. Korean satellite - Visible Passes

Search period start: 30 March 2017 00:00
Search period end: 09 April 2017 00:00
Orbit: 461 x 520 km, 97.2° (Epoch: 28 March)

Date Brightness Start Highest point End Pass type
(mag) Time Alt. Az. Time Alt. Az. Time Alt. Az.
30 Mar 9.7 20:27:22 10° SW 20:29:30 15° W 20:31:37 10° WNW visible
31 Mar 8.8 20:03:41 10° SSW 20:06:48 29° W 20:09:55 10° NW visible
03 Apr 9.8 20:30:54 10° SW 20:32:42 13° W 20:34:29 10° WNW visible
04 Apr 9.0 20:06:59 10° SSW 20:09:58 26° W 20:12:57 10° NW visible
07 Apr 9.9 20:34:23 10° WSW 20:35:47 12° W 20:37:10 10° WNW visible
08 Apr 9.2 20:10:10 10° SSW 20:13:00 23° W 20:15:51 10° NW visible
